This is the latest recevied weather packets stored in our database for station/object N9ALD. If no packets are shown the sender has not sent any weather packets the latest 10 day(s).
| Time | Temp. | Humidity | Pressure | Rain* | Wind** | Luminosity | Snow |
|---|---|---|---|---|---|---|---|
| 1788136863 | 74° F | 87% | 760.6 mmHg | 0 in | - | 0 W/m² | - |
| 1788136559 | 75° F | 86% | 760.5 mmHg | 0 in | - | 0 W/m² | - |
| 1788136255 | 75° F | 85% | 760.6 mmHg | 0 in | - | 0 W/m² | - |
| 1788135953 | 75° F | 84% | 760.7 mmHg | 0 in | - | 1 W/m² | - |
| 1788135649 | 76° F | 84% | 760.6 mmHg | 0 in | - | 2 W/m² | - |
| 1788135344 | 77° F | 83% | 760.4 mmHg | 0 in | - | 4 W/m² | - |
| 1788135040 | 77° F | 82% | 760.5 mmHg | 0 in | - | 6 W/m² | - |
| 1788134737 | 78° F | 81% | 760.5 mmHg | 0 in | - | 7 W/m² | - |
| 1788134436 | 79° F | 79% | 760.7 mmHg | 0 in | - | 8 W/m² | - |
| 1788134135 | 80° F | 78% | 760.6 mmHg | 0 in | - | 10 W/m² | - |
| 1788133830 | 81° F | 76% | 760.6 mmHg | 0 in | - | 12 W/m² | - |
| 1788133525 | 82° F | 72% | 760.3 mmHg | 0 in | - | 15 W/m² | - |
| 1788133220 | 84° F | 69% | 760.6 mmHg | 0 in | - | 20 W/m² | - |
| 1788132916 | 85° F | 66% | 760.5 mmHg | 0 in | - | 26 W/m² | - |
| 1788132612 | 86° F | 66% | 760.5 mmHg | 0 in | - | 36 W/m² | - |
| 1788132307 | 86° F | 65% | 760.4 mmHg | 0 in | - | 46 W/m² | - |
| 1788132003 | 86° F | 64% | 760.5 mmHg | 0 in | - | 61 W/m² | - |
| 1788131699 | 87° F | 62% | 760.5 mmHg | 0 in | - | 71 W/m² | - |
| 1788131398 | 87° F | 63% | 760.4 mmHg | 0 in | - | 80 W/m² | - |
| 1788131093 | 86° F | 65% | 760.5 mmHg | 0 in | - | 91 W/m² | - |
| 1788130792 | 86° F | 64% | 760.6 mmHg | 0 in | - | 108 W/m² | - |
| 1788130489 | 85° F | 66% | 760.5 mmHg | 0 in | - | 137 W/m² | - |
| 1788130188 | 84° F | 65% | 760.3 mmHg | 0 in | - | 106 W/m² | - |
| 1788129887 | 84° F | 67% | 760.4 mmHg | 0 in | - | 95 W/m² | - |
| 1788129584 | 84° F | 68% | 760.3 mmHg | 0 in | - | 88 W/m² | - |
* Rain latest hour (hover to see other rain measurements)
** Current wind speed in m/s (hover to see current wind gust speed)